Rochester, MN
on Tuesday, April 23, 2013

Tuesday
Previous Day Next Day
Daily Summary
 ActualAverageRecord
Temperature
Mean Temperature °F 50°F  
Max Temperature 39°F 61°F 84°F (1960)
Min Temperature 30°F 39°F 20°F (1956)
Degree Days
Heating Degree Days 30 15  
Month to date heating degree days 657 459  
Since 1 July heating degree days 7374 7331  
Cooling Degree Days 0 0  
Month to date cooling degree days 0 0  
Year to date cooling degree days 0 0  
Moisture
Dew Point 28°F   
Average Humidity 76    
Maximum Humidity 92    
Minimum Humidity 59    
Precipitation
Precipitation T in 0.12 in 3.81 in (1990)
Month to date precipitation 6.19 2.38  
Year to date precipitation 11.04 5.95  
Snow
Snow T in 0.10 in 1.10 in (1988)
Month to date snowfall 4.2 2.9  
Since 1 July snowfall 59.5 51.5  
Snow Depth 0.00 in   
Wind
Wind Speed 16 mph   
Max Wind Speed 24 mph   
Max Gust Speed 31 mph   
Visibility 9 miles   
Events Snow   

Key: T is trace of precipitation, MM is missing value
Source: NWS Daily Summary
Time(CDT)TemperatureDew PointHumidity Pressure Visibility Wind DirectionWind SpeedGust SpeedPrecipitationEvents Conditions
12:13 AM 33.8°F 30.2°F 87% 30.03 in 3.0 miles NNW 18.4 mph - 0.00 in Snow Light Snow
12:23 AM 33.8°F 30.2°F 87% 30.03 in 2.5 miles NNW 15.0 mph - 0.00 in Snow Light Snow
12:38 AM 33.8°F 30.2°F 87% 30.02 in 3.0 miles NNW 17.3 mph 25.3 mph 0.00 in Snow Light Snow
12:54 AM 32.0°F 30.0°F 92% 30.05 in 3.0 miles NNW 19.6 mph - 0.00 in Snow Light Snow
1:54 AM 32.0°F 28.9°F 88% 30.07 in 10.0 miles NNW 20.7 mph - 0.00 in   Overcast
2:05 AM 32.0°F 28.4°F 87% 30.02 in 10.0 miles North 18.4 mph 27.6 mph N/A   Overcast
2:54 AM 32.0°F 28.9°F 88% 30.08 in 5.0 miles NNW 19.6 mph 28.8 mph 0.00 in Snow Light Snow
3:54 AM 32.0°F 28.9°F 88% 30.07 in 10.0 miles NNW 19.6 mph - 0.00 in   Overcast
4:54 AM 32.0°F 28.4°F 87% 30.04 in 10.0 miles NNW 24.2 mph 28.8 mph N/A   Overcast
5:54 AM 32.0°F 28.0°F 85% 30.10 in 10.0 miles NNW 17.3 mph - N/A   Overcast
6:36 AM 32.0°F 28.4°F 87% 30.08 in 10.0 miles NNW 19.6 mph - N/A   Overcast
6:54 AM 30.9°F 28.0°F 89% 30.11 in 10.0 miles NNW 21.9 mph 26.5 mph N/A   Overcast
7:54 AM 30.9°F 27.0°F 85% 30.12 in 10.0 miles North 20.7 mph 26.5 mph N/A   Overcast
8:54 AM 30.9°F 27.0°F 85% 30.12 in 10.0 miles North 18.4 mph 26.5 mph N/A   Overcast
9:54 AM 32.0°F 27.0°F 82% 30.13 in 10.0 miles NNW 21.9 mph - N/A   Overcast
10:54 AM 32.0°F 27.0°F 82% 30.14 in 10.0 miles North 15.0 mph - N/A   Overcast
11:33 AM 35.6°F 30.2°F 81% 30.08 in 10.0 miles North 15.0 mph 21.9 mph N/A   Overcast
11:54 AM 36.0°F 30.0°F 79% 30.12 in 10.0 miles North 16.1 mph - N/A   Mostly Cloudy
12:54 PM 36.0°F 28.9°F 76% 30.13 in 10.0 miles NNW 16.1 mph - N/A   Mostly Cloudy
1:54 PM 39.0°F 30.0°F 70% 30.11 in 10.0 miles North 15.0 mph 23.0 mph N/A   Mostly Cloudy
2:54 PM 37.9°F 27.0°F 65% 30.11 in 10.0 miles North 15.0 mph - N/A   Overcast
3:02 PM 37.4°F 26.6°F 65% 30.06 in 10.0 miles North 16.1 mph - N/A   Overcast
3:38 PM 37.4°F 28.4°F 70% 30.06 in 10.0 miles NNW 15.0 mph - N/A   Mostly Cloudy
3:54 PM 37.0°F 27.0°F 67% 30.09 in 10.0 miles NNW 16.1 mph - N/A   Mostly Cloudy
4:54 PM 37.9°F 26.1°F 62% 30.09 in 10.0 miles NW 17.3 mph - N/A   Overcast
5:54 PM 37.0°F 26.1°F 65% 30.08 in 10.0 miles NW 15.0 mph - N/A   Overcast
6:54 PM 37.0°F 24.1°F 59% 30.08 in 10.0 miles NW 15.0 mph - N/A   Mostly Cloudy
7:54 PM 36.0°F 24.1°F 62% 30.09 in 10.0 miles NW 15.0 mph - N/A   Overcast
8:54 PM 33.1°F 25.0°F 72% 30.10 in 10.0 miles WNW 9.2 mph - N/A   Partly Cloudy
9:54 PM 32.0°F 25.0°F 75% 30.11 in 10.0 miles WNW 9.2 mph - N/A   Clear
10:54 PM 32.0°F 24.1°F 73% 30.11 in 10.0 miles WNW 9.2 mph - N/A   Clear
11:54 PM 30.9°F 24.1°F 76% 30.10 in 10.0 miles NW 10.4 mph - N/A   Clear
Astronomy
Sunrise:06:13 AM (CDT) Moon Rise:05:56 PM (CDT)4/23
Sunset:08:03 PM (CDT) Moon Set:04:46 AM (CDT)4/23
Moon Phase
Apr. 23 Apr. 25 May. 02 May. 10 May. 18

Copyright © 2017 The Weather Underground, Inc.